SCP
3 3 2 2 3 4 6 7 8 9 8 7 6 5 4 3 3 3 3 2 2 2 2 3 3 3 3 4 4 5 5 4 2 2 2 2 3 3 2 2 2 1 1
3 3 3 3 3 4 4 5 7 8 8 7 6 5 4 4 4 4 3 3 2 2 2 3 3 3 3 4 4 4 4 3 3 2 2 2 3 3 2 2 1 1 1
3 3 3 3 3 3 4 4 6 7 7 7 6 5 4 4 4 4 4 3 3 3 3 3 3 3 3 3 3 3 3 3 3 3 2 2 2 2 2 1 1 1 0
3 3 4 4 4 4 4 4 5 6 7 7 6 5 4 4 4 4 4 4 4 3 3 3 3 4 3 3 3 3 2 2 2 2 2 2 1 2 2 1 1 1 1
5 5 5 6 5 5 5 4 4 5 6 7 6 5 4 3 3 3 3 3 4 4 4 4 3 3 3 3 2 2 2 2 2 1 1 1 1 1 1 1 1 1 1
6 6 7 7 6 5 4 4 4 5 6 6 6 5 4 3 2 2 2 3 3 3 4 4 3 3 3 2 1 1 1 1 1 1 1 1 2 2 2 1 1 1 1
7 7 7 7 5 4 4 4 4 4 5 5 4 4 3 3 2 1 1 2 3 3 3 4 3 3 2 2 1 1 1 1 1 1 1 1 2 2 2 2 2 2 2
9 9 8 7 6 5 5 5 4 4 4 4 3 3 3 2 2 1 1 1 2 3 3 3 3 2 2 2 1 1 1 1 0 0 0 1 1 2 2 2 2 2 2
10 10 9 8 7 7 7 6 6 5 4 4 3 3 3 2 2 1 1 1 2 2 3 3 2 2 1 1 1 1 1 1 1 0 0 0 1 1 1 1 1 1 1
9 9 8 7 7 6 7 7 7 6 5 4 4 3 3 2 1 1 0 1 1 2 2 2 2 1 1 0 1 1 1 1 1 1 0 0 0 0 0 0 1 1 1
7 7 7 6 5 5 5 6 6 6 5 4 4 4 3 2 1 0 0 1 1 1 2 2 1 1 0 0 0 1 1 1 1 1 1 0 0 1 1 1 1 1 1
6 6 5 5 5 4 4 4 4 4 4 4 4 4 3 2 1 0 0 0 1 1 1 1 1 0 0 0 0 0 0 0 0 0 1 1 1 1 1 1 1 1 1
6 6 6 6 5 4 4 3 4 4 3 3 3 3 3 2 1 1 0 0 0 0 1 1 0 0 0 0 0 0 0 0 0 0 0 1 1 1 1 1 1 1 1
7 7 7 6 5 3 3 3 3 3 3 3 3 2 2 1 1 1 0 0 0 0 0 0 0 0 0 0 0 0 0 0 0 0 0 0 1 1 1 1 1 1 1
6 6 6 6 4 3 2 2 2 2 2 2 2 1 1 1 0 0 0 0 0 0 0 0 0 0 0 0 0 1 1 0 0 0 0 0 1 1 1 1 1 1 1
3 3 4 3 3 2 1 1 1 1 1 1 0 0 0 0 0 0 0 0 0 0 0 0 0 1 1 1 1 1 1 1 1 1 1 1 1 1 1 1 1 1 0
2 2 2 2 2 1 1 0 0 0 0 0 0 0 0 0 0 0 0 0 0 0 0 0 0 1 1 1 1 1 1 1 1 1 1 1 1 1 1 1 1 1 1
2 2 2 2 1 1 0 0 0 0 0 0 0 0 0 0 0 0 0 0 0 0 0 0 0 1 1 1 1 1 1 1 1 1 1 1 1 1 1 1 1 1 1
1 1 1 1 0 0 0 0 0 0 0 0 0 0 0 0 0 0 0 0 0 0 0 0 0 1 1 1 1 1 1 1 1 1 1 1 1 1 1 1 1 1 1
0 0 0 0 0 0 0 0 0 0 0 0 0 0 0 0 0 0 0 0 0 0 0 0 0 1 1 1 1 1 1 1 1 1 1 1 1 1 1 1 1 1 1
0 0 0 0 0 0 0 0 0 0 0 0 0 0 0 0 0 0 0 0 0 0 0 0 1 1 1 1 1 1 1 1 1 1 1 1 1 1 1 0 0 0 0
0 0 0 0 0 0 0 0 0 0 0 0 0 0 0 0 0 0 0 0 0 0 0 1 1 0 0 1 1 1 1 1 1 1 1 1 1 0 0 0 0 0 0
0 0 0 0 0 0 0 0 0 0 0 0 0 0 0 0 0 0 0 0 0 1 1 1 1 0 0 1 1 1 1 1 1 1 1 0 0 0 0 0 0 0 0
0 0 0 0 0 0 0 0 0 0 0 0 0 0 0 0 0 0 0 0 0 0 1 1 1 0 0 0 0 0 0 1 1 1 0 0 0 0 0 0 0 0 0
0 0 0 0 0 0 0 0 0 0 0 0 0 0 0 0 0 0 0 0 0 0 0 0 0 0 0 0 0 0 0 0 0 0 0 0 0 0 0 0 0 0 0
0 0 0 0 0 0 0 0 0 0 0 0 0 0 0 0 0 0 0 0 0 0 0 0 0 0 0 0 0 0 0 0 0 0 0 0 0 0 0 0 0 0 0
Wind_Speed
7 7 7 7 7 7 6 6 6 6 6 7 7 7 7 7 7 6 6 6 6 5 5 4 4 4 2 2 2 2 2 1 2 2 1 1 2 2 3 3 4 5 7
7 7 7 6 6 6 7 7 6 6 6 7 7 7 7 8 8 7 7 7 7 6 6 5 5 5 4 3 3 2 2 1 1 3 2 1 2 4 4 4 5 6 5
8 8 7 7 7 7 7 7 7 7 6 7 7 7 7 7 7 7 7 6 6 6 6 6 5 5 5 4 4 3 2 2 2 2 3 3 2 3 4 5 6 5 7
7 7 7 7 7 7 6 6 6 6 6 6 6 6 6 5 6 6 6 6 5 5 5 5 5 6 6 5 5 4 4 3 3 3 3 3 3 3 3 3 4 4 5
6 6 6 6 6 6 6 5 5 5 7 6 5 5 5 5 5 6 6 7 5 5 4 4 5 5 5 5 5 3 4 4 3 3 4 4 4 3 3 3 4 4 4
6 6 5 5 6 6 6 6 6 5 4 5 5 4 5 5 6 7 6 5 4 5 4 4 4 5 5 6 6 5 4 5 5 4 4 4 4 4 3 3 3 3 4
5 5 5 5 5 4 5 5 5 5 4 4 4 3 3 2 3 5 5 3 3 4 4 4 5 5 6 5 6 8 8 8 7 5 6 6 5 4 3 4 3 4 4
6 5 5 5 5 4 4 4 4 3 3 3 3 3 2 1 3 4 4 3 2 3 3 3 4 3 3 3 4 5 6 7 7 7 7 6 5 3 3 3 4 4 5
6 5 5 5 5 4 4 3 4 4 4 4 3 3 2 1 2 3 3 3 2 3 2 3 2 2 3 3 3 4 5 4 5 6 6 6 6 6 4 3 4 4 6
5 5 5 4 4 4 3 3 3 3 3 3 2 2 2 2 3 3 3 1 2 2 2 2 1 2 3 2 3 5 6 5 4 4 4 5 6 7 8 6 5 5 5
6 6 5 5 5 4 4 3 3 3 4 3 3 3 3 2 4 4 3 1 1 2 1 1 1 0 1 2 3 4 5 4 4 4 4 4 4 5 5 6 6 6 6
7 7 6 5 4 5 5 3 3 3 3 3 3 2 2 3 4 3 2 1 2 2 2 2 2 2 2 3 3 4 4 4 3 4 4 4 4 4 4 5 6 6 7
8 8 7 7 5 5 4 3 3 3 2 2 2 2 2 2 3 4 2 0 1 1 2 2 3 4 4 4 5 5 4 3 3 3 4 4 4 4 4 4 5 6 7
8 7 6 6 7 6 5 5 4 4 3 3 3 3 3 4 4 3 2 1 0 1 1 3 5 6 5 4 4 4 4 4 3 4 4 4 3 4 4 3 4 4 5
7 6 6 7 6 6 6 6 6 6 4 3 4 4 4 4 3 3 2 2 2 2 2 3 3 3 2 3 3 3 3 3 4 4 4 4 5 5 4 4 4 4 5
6 5 4 4 4 5 5 6 10 8 8 9 8 6 5 4 3 3 3 2 2 3 3 3 3 3 2 2 2 3 3 3 3 4 4 5 5 4 4 4 3 4 5
6 5 4 4 4 4 4 4 4 4 5 6 5 5 4 3 1 1 2 4 5 2 2 3 3 3 3 3 3 3 3 3 3 3 4 4 4 4 4 4 5 5 5
6 7 5 4 4 3 3 2 3 3 3 2 2 2 2 2 2 2 2 3 3 1 2 3 3 3 3 3 4 4 4 4 4 4 4 5 5 5 5 5 5 6 6
7 6 5 4 3 3 3 3 3 3 3 2 2 2 1 2 3 3 2 3 4 4 4 3 4 4 4 4 4 4 5 4 5 5 5 5 5 5 5 5 5 7 7
5 6 5 4 4 5 5 5 5 4 4 3 3 3 2 2 2 1 1 2 3 4 4 5 4 5 4 4 4 4 4 4 5 5 5 5 5 5 6 7 6 6 6
3 3 4 4 5 6 6 6 5 4 4 4 4 4 3 3 4 4 3 3 4 5 5 5 5 5 5 5 5 6 7 6 5 5 5 5 6 6 5 6 6 6 7
4 4 5 5 5 5 4 4 4 5 5 5 4 3 4 4 6 6 6 6 6 6 6 6 7 6 6 6 6 7 7 7 6 6 6 6 6 6 6 6 7 6 7
5 5 5 5 4 4 4 5 6 6 6 7 7 7 6 6 6 6 7 7 6 6 6 6 7 7 7 7 7 6 6 6 7 7 7 7 7 7 7 7 9 9 8
5 5 6 5 5 6 6 6 6 7 7 7 7 7 7 7 7 8 8 7 7 7 7 7 7 9 11 9 7 6 6 7 8 7 9 9 9 9 8 8 9 10 9
6 6 6 6 6 6 6 6 6 7 7 6 7 7 7 7 7 7 7 7 8 8 9 9 7 8 11 12 10 8 7 7 6 7 8 8 10 10 10 10 9 9 9
7 7 6 6 6 6 6 6 6 7 7 7 7 6 7 7 7 7 7 8 8 8 8 7 9 11 11 9 11 10 8 9 8 8 8 8 9 9 9 8 10 9 9
Wind_Direction
176 176 174 181 184 181 187 192 193 191 175 173 178 181 184 186 187 193 211 189 194 203 216 209 207 250 283 276 236 233 240 242 263 282 259 166 150 164 160 222 230 207 212
174 174 176 176 180 186 193 192 187 186 183 183 184 187 194 192 188 192 212 201 195 202 213 215 208 219 222 268 291 269 243 217 240 280 294 266 195 191 195 221 245 244 235
175 176 179 182 185 190 195 189 183 182 187 188 190 194 202 198 190 194 205 210 204 207 209 212 215 222 218 220 233 262 269 255 212 241 267 271 244 220 206 226 244 256 268
173 176 179 184 186 185 186 181 179 180 187 193 196 198 201 203 195 198 203 211 214 216 214 212 214 218 216 220 227 231 251 271 263 245 255 261 254 238 212 222 248 243 251
165 170 174 176 176 173 175 173 172 180 191 191 195 194 194 200 207 204 204 209 212 221 226 221 224 219 214 214 231 224 232 239 251 250 248 252 255 252 242 236 250 258 253
152 159 159 158 167 172 173 170 171 179 189 186 188 190 198 214 213 200 201 215 203 214 227 229 229 217 218 217 228 236 238 244 251 258 261 258 262 264 265 261 259 270 273
145 148 149 154 155 162 173 166 171 174 179 182 179 184 195 230 194 177 195 221 225 221 225 227 243 241 217 218 226 236 246 250 242 250 265 269 275 278 275 274 273 273 268
146 144 147 151 151 153 157 160 165 167 175 175 179 178 177 194 171 175 192 212 238 244 239 231 231 259 271 245 242 240 240 241 237 234 242 256 268 278 278 271 268 273 265
142 138 141 145 145 149 154 159 161 162 164 171 174 175 177 175 154 166 174 194 223 243 262 273 256 244 272 271 261 264 262 255 246 238 232 240 250 262 261 271 269 269 274
134 131 130 130 132 137 140 138 132 137 146 146 135 133 132 117 114 129 169 215 230 245 238 255 292 284 291 281 264 263 263 265 273 271 252 254 254 254 243 233 243 255 267
108 107 104 104 114 114 109 108 110 119 123 126 113 103 101 96 116 124 145 245 283 289 294 306 20 18 268 267 265 261 260 269 280 275 269 260 252 246 240 232 226 231 246
98 96 91 87 91 99 95 101 111 116 118 117 106 93 94 93 85 118 138 233 322 327 331 358 31 356 303 282 264 261 275 286 275 273 272 271 266 260 255 249 244 242 241
91 90 90 86 75 76 89 94 95 96 103 110 115 109 91 91 85 87 106 251 330 338 343 346 311 288 278 271 248 253 259 256 262 269 271 273 272 273 272 264 259 252 250
80 81 85 86 75 61 58 62 63 61 62 63 71 78 85 80 55 43 41 60 44 305 305 297 275 269 260 260 261 242 235 246 253 262 269 270 271 274 270 265 268 269 270
77 77 79 83 85 77 68 54 63 56 56 60 56 56 51 57 41 32 17 8 359 7 321 278 269 257 244 241 248 250 244 242 251 261 269 275 274 270 269 265 263 268 272
68 65 72 83 90 96 96 80 56 70 72 73 76 83 81 88 94 57 33 354 330 339 317 284 282 279 281 284 279 271 258 256 259 261 264 266 273 279 283 280 279 279 280
59 60 58 65 73 85 99 110 107 83 71 73 80 87 103 124 97 21 352 333 311 310 278 286 302 315 318 319 316 313 309 301 287 284 287 288 288 290 289 287 284 283 284
51 54 46 49 49 53 55 72 106 126 129 118 124 144 161 205 245 275 334 336 310 262 275 296 311 320 326 329 327 324 321 324 322 316 310 307 302 296 294 295 297 299 300
40 40 31 28 30 45 45 46 51 51 58 94 111 106 229 276 271 274 288 292 311 327 329 326 327 330 334 334 329 324 323 321 320 311 303 299 300 300 299 299 296 295 291
48 36 21 19 28 33 34 34 34 31 28 33 47 54 36 336 323 319 262 297 313 328 335 338 343 341 337 334 331 325 322 321 320 315 314 316 317 315 309 304 300 296 290
34 39 24 26 36 34 27 21 18 14 16 23 40 56 16 339 341 344 348 348 346 350 349 344 342 339 343 342 339 334 332 327 328 328 327 322 316 312 306 302 303 302 302
15 27 29 37 41 34 16 4 8 14 16 15 15 28 14 353 359 5 6 8 6 2 358 349 344 346 350 350 344 335 332 332 336 334 328 322 317 311 309 306 304 303 301
12 25 35 36 34 35 22 22 21 19 19 19 15 12 10 7 7 7 4 4 2 355 355 352 343 344 350 351 349 349 345 343 338 332 325 318 312 305 302 299 298 299 298
15 26 32 34 31 30 29 25 23 22 18 17 16 12 9 7 5 5 3 4 360 353 353 350 345 347 351 352 351 358 2 348 333 322 317 307 301 296 295 294 292 292 294
24 28 30 30 29 29 26 25 25 19 12 13 14 11 7 6 6 5 360 359 355 351 349 347 347 350 349 350 353 355 350 334 321 319 309 299 294 294 291 291 290 291 291
29 27 27 27 28 25 23 21 20 15 11 10 10 11 8 5 4 3 358 355 349 346 345 344 344 346 349 356 358 354 343 332 324 314 303 293 289 288 294 294 295 294 294